User: anonymous   Login
Location: Unspecified
(0.0000°N, 0.0000°E)
Time: 07:13:35
(UTC+00:00)
Language:

ZACube-1 - Orbit

View from above orbital plane
View from above orbital plane
View from above satellite
View from above satellite

Ground track
Ground track

The orbit data is extracted from the following two-line orbital elements,

1 39417U 13066B   17178.56693768 +.00000197 +00000-0 +31627-4 0  9994
2 39417 097.6287 220.3069 0058054 235.1578 124.4167 14.80714386194315
Epoch (UTC): 27 June 2017 13:36:23
Eccentricity: 0.0058054
inclination: 97.6287°
perigee height: 586 km
apogee height: 668 km
right ascension of ascending node: 220.3069°
argument of perigee: 235.1578°
revolutions per day: 14.80714386
mean anomaly at epoch: 124.4167°
orbit number at epoch: 19431

The dashed part of the orbit path shows where the satellite is in the earth's shadow,  

DLR